Weather Roundup
Issued by NWS

Home | Current Version | Previous Version | Text Only | Print | Product List | Glossary On
Versions: 1 2 3 4 5 6 7 8 9 10 11 12 13 14 15 16 17 18 19 20 21 22 23 24 25 26 27 28 29 30 31 32 33 34 35 36 37 38 39 40 41 42 43 44 45 46 47 48 49 50
000
NZUS93 KARX 300659
HRRWXR

CURRENT HOURLY OBSERVATIONS ACROSS
MUCH OF THE UPPER MISSISSIPPI VALLEY
NATIONAL WEATHER SERVICE LA CROSSE WI
200 AM CDT TUE SEP 30 2014


...SOUTHEAST MINNESOTA...


CITY           SKY/WX    TMP DP  RH WIND       PRES   REMARKS
ROCHESTER      CLEAR     43  41  93 NE10      30.08S
ROCHESTER/MAYO FAIR      45  40  84 NE6       30.08F
WINONA         PTCLDY    43  39  87 E8        30.12R
AUSTIN         CLEAR     45  43  93 E5        30.06S
ALBERT LEA     CLEAR     46  45  93 E7        30.06S
DODGE CENTER   PTCLDY    45  43  93 E10       30.07S
PRESTON        MOCLDY    43  42  95 NE7       30.08S
OWATONNA       CLEAR     45  41  87 E8        30.08R
FARIBAULT      CLEAR     45  39  81 NE5       30.09R
$$

...ELSEWHERE IN MINNESOTA...


CITY           SKY/WX    TMP DP  RH WIND       PRES   REMARKS
MINNEAPOLIS    PTCLDY    43  39  86 E9        30.11S
INTNL FALLS    CLOUDY    42  39  89 SE5       30.15S
DULUTH         CLOUDY    44  39  82 E12       30.15S
RED WING       CLOUDY    43  39  87 E7        30.11S
REDWOOD FALLS  CLEAR     46  44  93 E9        30.06F
MANKATO        CLEAR     46  39  76 E9        30.08R
WORTHINGTON    CLOUDY    52  46  82 E9        30.04S
FAIRMONT       CLEAR     48  43  81 E3        30.06S
$$

...SOUTHWEST WISCONSIN...


CITY           SKY/WX    TMP DP  RH WIND       PRES   REMARKS
LA CROSSE      PTCLDY    46  41  82 N5        30.11R
PRAIRIE DU CHI CLOUDY    54  46  76 E8        30.06R
BOSCOBEL       CLOUDY    53  46  77 VRB5      30.07R
LONE ROCK      NOT AVBL
PLATTEVILLE    CLOUDY    51  49  90 NE10      30.06R
FORT MC COY    CLOUDY    45  43  93 N3        30.11R
CAMP DOUGLAS   CLOUDY    45  45 100 NE8       30.11R
VIROQUA        CLOUDY    46  46 100 E6        30.07S
WIS DELLS      CLOUDY    46  42  87 E6        30.09R
$$

...ELSEWHERE IN WISCONSIN...


CITY           SKY/WX    TMP DP  RH WIND       PRES   REMARKS
MILWAUKEE      CLOUDY    48  42  80 N15G25    30.07R
MADISON        CLOUDY    47  42  83 NE13      30.09R
GREEN BAY      CLOUDY    43  38  82 N13       30.11S
EAU CLAIRE     CLOUDY    43  37  79 NE10      30.13R
BLACK RVR FLS  CLOUDY    43  42  95 NE3       30.11S
MEDFORD        CLOUDY    38  35  90 NE10      30.12S WCI  31
WAUSAU         CLOUDY    40  36  86 NE8       30.11F WCI  34
WIS RAPIDS     CLOUDY    44  38  79 NE8       30.13R
MARSHFIELD     CLOUDY    42  37  82 E9        30.11R
RICE LAKE      CLOUDY    41  37  86 NE7       30.16S
$$

...NORTHEAST IOWA...


CITY           SKY/WX    TMP DP  RH WIND       PRES   REMARKS
DECORAH        MOCLDY    48  46  93 E7        30.05S
MASON CITY     CLEAR     48  47  96 CALM      30.07R
CHARLES CITY   CLEAR     50  48  93 NE7       30.06R
OELWEIN        CLEAR     52  48  87 E6        30.05R
$$

...ELSEWHERE IN IOWA...


CITY           SKY/WX    TMP DP  RH WIND       PRES   REMARKS
DES MOINES     PTCLDY    62  57  83 E7        30.00S
IOWA CITY      CLOUDY    59  56  89 NE13      30.02R
FORT DODGE     MOCLDY    54  48  82 E8        30.04S
$$

...NORTHERN ILLINOIS...


CITY           SKY/WX    TMP DP  RH WIND       PRES   REMARKS
CHICAGO-OHARE  CLOUDY    53  47  79 NE14      30.02S
CHICAGO-MIDWAY CLOUDY    57  50  77 NE13      30.02R
MOLINE         NOT AVBL
ROCKFORD       CLOUDY    53  49  86 NE9       30.06R
PEORIA         MOCLDY    63  57  82 NE9       29.97R HAZE
$$

NOTE: "FAIR" INDICATES FEW OR NO CLOUDS BELOW 12,000 FEET WITH NO
SIGNIFICANT WEATHER AND/OR OBSTRUCTIONS TO VISIBILITY. WIND
SPEEDS ARE IN MILES-PER-HOUR.



USA.gov is the U.S. government's official web portal to all federal, state and local government web resources and services.